Flag for Germany Weather past 2 weeks in Dorsten, North Rhine-Westphalia, Germany

Now
57 °F

Passing clouds.


Feels Like: 57 °F
Forecast: 53 / 72 °F
Wind: 2 mph from Southeast

Location: Essen

Current Time: Aug 27, 2014 at 11:06:36 AM

Latest Report: Aug 27, 2014 at 10:00 AM


Visibility: 4 mi

Pressure: 30.00 "Hg

Humidity: 86%

Dew point: 53 °F

Location of DorstenLocation

Historic Weather in Dorsten — Graph

°F

Dorsten temperature yesterday

Maximum temperature yesterday: 57 °F (at 1:00 PM)
Minimum temperature yesterday: 54 °F (at 6:00 AM)
Average temperature yesterday: 56 °F

Past Weeks' High & Low Weather Summary

 TemperatureHumidityPressure
High68 °F (Aug 12, 5:00 PM)100% (Aug 25, 10:00 PM)30.10 "Hg (Aug 25, 10:00 PM)
Low47 °F (Aug 21, 7:00 AM)47% (Aug 20, 5:00 PM)29.64 "Hg (Aug 26, 6:00 AM)
Average56 °F84%29.89 "Hg
* Reported Aug 12 10:00 AM — Aug 27 10:00 AM, Dorsten, Weather by CustomWeather, © 2014

Note: Actual official high and low records may vary slightly from our data, if they occured in-between our weather recording intervals... More about our weather records

Advertising

Dorsten weather history for previous 24 hours

 ConditionsComfort  
Time TempWeatherWind HumidityBarometerVisibility
10:00 AM
Aug 27
57 °FPassing clouds.2 mph86%30.00 "Hg4 mi
9:00 AM52 °FSunny.2 mph100%29.99 "Hg0 mi
8:00 AM50 °FPassing clouds.2 mph100%29.97 "Hg0 mi
7:00 AM47 °FSunny.1 mph100%29.95 "Hg0 mi
6:00 AM50 °FFog.1 mph97%29.93 "Hg2 mi
5:00 AM50 °FFog.3 mph97%29.91 "Hg2 mi
4:00 AM51 °FFog.3 mph96%29.89 "Hg2 mi
3:00 AM53 °FFog.3 mph98%29.87 "Hg2 mi
2:00 AM54 °FFog.2 mph99%29.86 "Hg2 mi
1:00 AM55 °FFog.3 mph97%29.84 "Hg2 mi
12:00 AM56 °FFog.3 mph97%29.82 "Hg3 mi
11:00 PM
Aug 26
56 °FFog.5 mph98%29.80 "Hg3 mi
10:00 PM56 °FOvercast.3 mph97%29.79 "Hg6 mi
9:00 PM56 °FLight rain. Overcast.3 mph95%29.76 "Hg16 mi
8:00 PM56 °FLight rain. Low clouds.3 mph97%29.75 "Hg6 mi
7:00 PM56 °FLight rain. Low clouds.5 mph97%29.74 "Hg6 mi
6:00 PM57 °FLight rain. Low clouds.3 mph97%29.73 "Hg5 mi
5:00 PM57 °FLight freezing rain. Low clouds.3 mph97%29.73 "Hg4 mi
4:00 PM56 °FRain. Low clouds.5 mph97%29.73 "Hg5 mi
3:00 PM56 °FLight freezing rain. Low clouds.3 mph95%29.73 "Hg8 mi
2:00 PM57 °FRain. Low clouds.2 mph98%29.73 "Hg2 mi
1:00 PM57 °FLight freezing rain. Low clouds.3 mph95%29.71 "Hg5 mi
12:00 PM56 °FLight freezing rain. Low clouds.3 mph96%29.71 "Hg4 mi
11:00 AM56 °FLight rain. Low clouds.2 mph96%29.69 "Hg7 mi
Weather by CustomWeather, © 2014

See weather overviewHow to use our weather pages